TimeCDT,TemperatureF,Dew PointF,Humidity,Sea Level PressureIn,VisibilityMPH,Wind Direction,Wind SpeedMPH,Gust SpeedMPH,PrecipitationIn,Events,Conditions,WindDirDegrees,DateUTC
12:15 AM,31.1,27.3,86,29.65,10.0,SSW,3.5,-,N/A,,Clear,200,2014-03-10 05:15:00
12:35 AM,31.3,27.3,85,29.65,10.0,SSW,3.5,-,N/A,,Clear,200,2014-03-10 05:35:00
12:55 AM,30.4,27.3,88,29.65,10.0,Calm,Calm,-,N/A,,Clear,0,2014-03-10 05:55:00
1:15 AM,29.8,26.6,88,29.65,10.0,SSW,3.5,-,N/A,,Scattered Clouds,200,2014-03-10 06:15:00
1:35 AM,29.3,26.8,90,29.65,10.0,Calm,Calm,-,N/A,,Scattered Clouds,0,2014-03-10 06:35:00
1:55 AM,28.8,26.2,90,29.65,10.0,Calm,Calm,-,N/A,,Clear,0,2014-03-10 06:55:00
2:15 AM,27.1,25.5,94,29.65,7.0,Calm,Calm,-,N/A,,Clear,0,2014-03-10 07:15:00
2:35 AM,26.2,25.3,96,29.65,7.0,South,3.5,-,N/A,,Clear,190,2014-03-10 07:35:00
2:55 AM,25.9,24.4,94,29.64,7.0,Calm,Calm,-,N/A,,Clear,0,2014-03-10 07:55:00
3:15 AM,26.1,24.8,95,29.64,7.0,Calm,Calm,-,N/A,,Clear,0,2014-03-10 08:15:00
3:35 AM,25.7,25.0,97,29.64,4.0,Calm,Calm,-,N/A,,Clear,0,2014-03-10 08:35:00
3:55 AM,25.7,25.3,99,29.62,1.0,South,3.5,-,N/A,,Mist,190,2014-03-10 08:55:00
4:15 AM,25.9,25.3,98,29.61,5.0,Calm,Calm,-,N/A,,Clear,0,2014-03-10 09:15:00
4:35 AM,26.4,25.9,98,29.60,5.0,SSW,3.5,-,N/A,,Clear,200,2014-03-10 09:35:00
4:55 AM,26.2,25.7,98,29.59,5.0,South,3.5,-,N/A,,Clear,190,2014-03-10 09:55:00
5:15 AM,26.8,26.1,97,29.60,5.0,Calm,Calm,-,N/A,,Clear,0,2014-03-10 10:15:00
5:35 AM,26.8,26.1,97,29.59,5.0,SW,3.5,-,N/A,,Clear,220,2014-03-10 10:35:00
5:55 AM,27.5,27.0,98,29.59,5.0,SSW,4.6,-,N/A,,Clear,200,2014-03-10 10:55:00
6:15 AM,27.9,27.3,98,29.59,5.0,Calm,Calm,-,N/A,,Clear,0,2014-03-10 11:15:00
6:35 AM,25.9,25.3,98,29.59,2.5,Calm,Calm,-,N/A,,Clear,0,2014-03-10 11:35:00
6:55 AM,26.6,26.2,99,29.60,2.5,Calm,Calm,-,N/A,,Clear,0,2014-03-10 11:55:00
7:15 AM,27.3,27.1,99,29.59,1.8,Calm,Calm,-,N/A,,Mist,0,2014-03-10 12:15:00
7:35 AM,25.7,25.5,99,29.59,1.0,Calm,Calm,-,N/A,,Mist,0,2014-03-10 12:35:00
7:55 AM,27.5,27.1,99,29.59,3.0,Calm,Calm,-,N/A,,Clear,0,2014-03-10 12:55:00
8:15 AM,27.1,26.8,99,29.59,3.0,SW,3.5,-,N/A,,Clear,230,2014-03-10 13:15:00
8:35 AM,31.6,30.9,97,29.58,7.0,WSW,4.6,-,N/A,,Clear,240,2014-03-10 13:35:00
8:55 AM,34.7,31.1,87,29.58,10.0,WSW,6.9,-,N/A,,Clear,240,2014-03-10 13:55:00
9:15 AM,37.2,32.0,81,29.58,10.0,West,5.8,-,N/A,,Clear,260,2014-03-10 14:15:00
9:35 AM,39.2,32.0,75,29.57,10.0,West,10.4,-,N/A,,Clear,260,2014-03-10 14:35:00
9:55 AM,40.3,32.0,72,29.57,10.0,WSW,11.5,-,N/A,,Clear,250,2014-03-10 14:55:00
10:15 AM,40.8,32.0,71,29.57,10.0,West,11.5,18.4,N/A,,Clear,260,2014-03-10 15:15:00
10:35 AM,42.1,32.0,67,29.57,10.0,West,10.4,-,N/A,,Clear,270,2014-03-10 15:35:00
10:55 AM,42.4,32.0,67,29.56,10.0,WSW,11.5,17.3,N/A,,Clear,250,2014-03-10 15:55:00
11:15 AM,43.5,32.2,64,29.57,10.0,WSW,9.2,-,N/A,,Clear,250,2014-03-10 16:15:00
11:35 AM,44.6,32.2,62,29.57,10.0,West,11.5,18.4,N/A,,Clear,260,2014-03-10 16:35:00
11:55 AM,45.9,32.5,60,29.57,10.0,West,10.4,18.4,N/A,,Clear,260,2014-03-10 16:55:00
12:15 PM,47.3,32.4,56,29.57,10.0,West,12.7,17.3,N/A,,Clear,270,2014-03-10 17:15:00
12:35 PM,48.4,32.4,54,29.57,10.0,West,15.0,24.2,N/A,,Clear,270,2014-03-10 17:35:00
12:50 PM,48.7,32.4,53,29.57,10.0,West,12.7,20.7,N/A,,Clear,280,2014-03-10 17:50:00
1:15 PM,49.3,32.2,52,29.56,10.0,West,13.8,21.9,N/A,,Clear,270,2014-03-10 18:15:00
1:35 PM,49.8,32.0,50,29.55,10.0,West,9.2,25.3,N/A,,Clear,270,2014-03-10 18:35:00
1:55 PM,50.4,32.0,49,29.55,10.0,West,11.5,19.6,N/A,,Clear,280,2014-03-10 18:55:00
2:15 PM,51.1,32.0,48,29.55,10.0,West,15.0,21.9,N/A,,Clear,270,2014-03-10 19:15:00
2:35 PM,51.1,32.0,48,29.55,10.0,West,12.7,17.3,N/A,,Clear,280,2014-03-10 19:35:00
2:55 PM,51.8,32.0,47,29.54,10.0,West,11.5,19.6,N/A,,Clear,280,2014-03-10 19:55:00
3:15 PM,51.8,32.0,47,29.55,10.0,West,13.8,20.7,N/A,,Clear,270,2014-03-10 20:15:00
3:35 PM,51.8,32.0,47,29.57,10.0,West,10.4,21.9,N/A,,Clear,280,2014-03-10 20:35:00
3:55 PM,51.8,31.6,46,29.56,10.0,West,10.4,21.9,N/A,,Clear,270,2014-03-10 20:55:00
4:15 PM,51.8,31.6,46,29.56,10.0,West,11.5,18.4,N/A,,Clear,270,2014-03-10 21:15:00
4:35 PM,51.6,31.1,45,29.56,10.0,West,12.7,19.6,N/A,,Clear,280,2014-03-10 21:35:00
4:55 PM,50.9,30.9,46,29.56,10.0,West,10.4,17.3,N/A,,Clear,280,2014-03-10 21:55:00
5:15 PM,50.4,30.7,47,29.57,10.0,West,6.9,16.1,N/A,,Clear,270,2014-03-10 22:15:00
5:35 PM,49.5,30.4,48,29.57,10.0,West,10.4,-,N/A,,Clear,260,2014-03-10 22:35:00
5:55 PM,48.6,30.2,49,29.57,10.0,West,8.1,-,N/A,,Clear,270,2014-03-10 22:55:00
6:15 PM,48.6,29.7,48,29.57,10.0,West,8.1,-,N/A,,Clear,270,2014-03-10 23:15:00
6:35 PM,47.8,29.3,49,29.57,10.0,West,4.6,-,N/A,,Clear,260,2014-03-10 23:35:00
6:55 PM,47.1,29.1,50,29.59,10.0,West,6.9,-,N/A,,Clear,270,2014-03-10 23:55:00
7:15 PM,46.2,29.3,52,29.60,10.0,West,4.6,-,N/A,,Clear,260,2014-03-11 00:15:00
7:35 PM,45.7,29.7,54,29.61,10.0,WSW,6.9,-,N/A,,Clear,250,2014-03-11 00:35:00
7:55 PM,45.5,30.2,55,29.62,10.0,WSW,6.9,-,N/A,,Clear,250,2014-03-11 00:55:00
8:15 PM,45.1,30.2,56,29.63,10.0,West,8.1,-,N/A,,Clear,260,2014-03-11 01:15:00
8:35 PM,44.6,30.0,57,29.63,10.0,West,5.8,-,N/A,,Clear,260,2014-03-11 01:35:00
8:55 PM,44.1,29.8,57,29.64,10.0,West,6.9,-,N/A,,Clear,260,2014-03-11 01:55:00
9:15 PM,43.7,30.0,59,29.64,10.0,West,5.8,-,N/A,,Clear,270,2014-03-11 02:15:00
9:35 PM,43.7,30.2,59,29.64,10.0,West,5.8,-,N/A,,Clear,270,2014-03-11 02:35:00
9:55 PM,43.7,30.2,59,29.64,10.0,West,5.8,-,N/A,,Scattered Clouds,270,2014-03-11 02:55:00
10:15 PM,43.5,30.2,59,29.64,10.0,West,6.9,-,N/A,,Scattered Clouds,270,2014-03-11 03:15:00
10:35 PM,42.8,30.2,61,29.64,10.0,West,6.9,-,N/A,,Clear,270,2014-03-11 03:35:00
10:55 PM,42.4,30.2,62,29.65,10.0,West,4.6,-,N/A,,Scattered Clouds,260,2014-03-11 03:55:00
11:15 PM,42.1,30.2,63,29.65,10.0,West,4.6,-,N/A,,Overcast,280,2014-03-11 04:15:00
11:35 PM,42.1,30.2,63,29.65,10.0,West,5.8,-,N/A,,Mostly Cloudy,280,2014-03-11 04:35:00
11:55 PM,42.3,30.2,62,29.64,10.0,West,5.8,-,N/A,,Mostly Cloudy,270,2014-03-11 04:55:00